Regional Weather Roundup
Issued by NWS

Home | Current Version | Previous Version | Text Only | Print | Product List | Glossary Off
Versions: 1 2 3 4 5 6 7 8 9 10 11 12 13 14 15 16 17 18 19 20 21 22 23 24 25 26 27 28 29 30 31 32 33 34 35 36 37 38 39 40 41 42 43 44 45 46 47 48 49 50

000
ASUS43 KMPX 020101
RWRMN
WEATHER ROUNDUP FOR MINNESOTA
NATIONAL WEATHER SERVICE TWIN CITIES/CHANHASSEN MN
700 PM CST SUN MAR 01 2015


NOTE: "FAIR" INDICATES FEW OR NO CLOUDS BELOW 12,000 FEET WITH NO
SIGNIFICANT WEATHER AND/OR OBSTRUCTIONS TO VISIBILITY. N/A MEANS
CURRENT SKY AND/OR WEATHER CONDITIONS ARE NOT AVAILABLE.

MNZ060>063-068>070-020200-
   Twin Cities Metro

CITY           SKY/WX    TMP DP  RH WIND       PRES   REMARKS
TWIN CITIES    PTCLDY    25  14  63 W12       30.27R WCI  14
ST PAUL        MOCLDY    26  15  63 W14       30.27R WCI  14
CRYSTAL        FAIR      26  11  52 W9        30.26R WCI  17
BLAINE         MOCLDY    27  12  54 W12G17    30.25R WCI  16
EDEN PRAIRIE   PTCLDY    24  14  65 W8        30.26R WCI  15
SOUTH ST PAUL  MOCLDY    27  17  66 W12       30.26R WCI  16
LAKE ELMO      FAIR      25  18  74 W7        30.25R WCI  17
$$
MNZ001>005-007-008-013>017-022>024-027-028-020200-
   Northwest Minnesota

CITY           SKY/WX    TMP DP  RH WIND       PRES   REMARKS
BEMIDJI        FLURRIES  11   6  81 W9        30.22R WCI  -2
ROSEAU         CLEAR     14   7  73 W9        30.23R WCI   2
WARROAD        CLEAR     12   3  67 W6        30.21R WCI   3
THIEF RVR FALL CLEAR     10   7  85 W5        30.27R WCI   2
CROOKSTON      CLEAR      9   7  92 W6        30.31R WCI  -1
FOSSTON        CLEAR      7   3  85 W6        30.27R WCI  -3
DETROIT LAKES  CLEAR     16  12  86 NW10      30.28R WCI   3
MOORHEAD       CLOUDY    19  14  79 NW12      30.33R WCI   7
PARK RAPIDS    CLOUDY    15   6  67 NW12      30.22R WCI   2
MAHNOMEN       FAIR       8   4  84 NW7       30.27R WCI  -3
$$
MNZ006-009>011-018-025>026-020200-
   North Central Minnesota

CITY           SKY/WX    TMP DP  RH WIND       PRES   REMARKS
BAUDETTE       CLEAR     13   2  61 W9        30.17R WCI   1
FLAG ISLAND    MOCLDY    16   1  53 W13       30.17R WCI   2
INTL FALLS     FLURRIES  14   8  77 W7        30.15R WCI   4
WASKISH        PTCLDY    10   7  85 W7        30.21R WCI   0
BIG FORK       PTCLDY    12   5  73 W5        30.18R WCI   4
LONGVILLE      PTCLDY    16   7  67 W8        30.22R WCI   5
GRAND RAPIDS   CLEAR     16   7  67 W14G20    30.17R WCI   1
CRANE LAKE     CLOUDY    16   3  57 CALM      30.16R
ORR            CLOUDY    16   5  62 W8        30.12R WCI   5
COOK           CLOUDY    16   7  67 W12       30.14R WCI   3
WALKER         MOCLDY    14   6  72 W9        30.21R WCI   2
$$
MNZ012-019>021-037-020200-
   Northeast Minnesota

CITY           SKY/WX    TMP DP  RH WIND       PRES   REMARKS
DULUTH         MOCLDY    20   8  60 NW15G24   30.11R WCI   6
HIBBING        FAIR      16   4  59 NW10      30.14R WCI   4
EVELETH        CLEAR     18   5  57 W6        30.14R WCI   9
DULUTH HARBOR  MOCLDY    25  12  58 W13G18    30.18R WCI  13
SILVER BAY     PTCLDY    19   7  58 CALM      30.09R
GRAND MARAIS     N/A     20   5  52 W8        30.09R WCI  10
G MARAIS ARPRT PTCLDY    12   0  57 W9G17     30.00R WCI   0
$$
MNZ029>031-032-039>041-046>048-054>057-064-020200-
   West Central Minnesota

CITY           SKY/WX    TMP DP  RH WIND       PRES   REMARKS
FERGUS FALLS   MOCLDY    18   9  68 N15G24    30.34R WCI   3
MORRIS         PTCLDY    19  12  73 NW13      30.31R WCI   7
ALEXANDRIA     PTCLDY    17  10  74 NW12      30.27R WCI   4
ELBOW LAKE     FAIR      18  11  74 NW10      30.30R WCI   6
WADENA         FLURRIES  16   9  73 W8        30.26R WCI   5
APPLETON       CLEAR     21  12  68 NW14      30.34R WCI   8
BENSON         MOCLDY    19  10  68 N10       30.32R WCI   8
ORTONVILLE     CLEAR     19  10  68 NW8       30.34R WCI   9
MADISON        CLEAR     21  14  73 W13       30.36R WCI   9
WILLMAR        MOCLDY    25  14  63 W13G21    30.32R WCI  13
$$
MNZ033>034-036-042>043-049>051-058-059-020200-
   Central Minnesota

CITY           SKY/WX    TMP DP  RH WIND       PRES   REMARKS
ST CLOUD       MOCLDY    22  12  65 W16       30.25R WCI   8
SAUK CENTRE    FAIR      18  11  74 NW12      30.27R WCI   6
PAYNESVILLE    CLOUDY    20  13  75 W16G23    30.29R WCI   5
PINE RIVER     CLOUDY    16  10  79 W8        30.25R WCI   5
BRAINERD       MOCLDY    19  10  68 NW9       30.23R WCI   8
STAPLES        FLURRIES  16  10  79 NW14      30.25R WCI   1
LONG PRAIRIE   CLOUDY    19  10  68 W10G16    30.26R WCI   8
LITTLE FALLS   FLURRIES  21  12  68 W14       30.26R WCI   8
LITCHFIELD     MOCLDY    25  18  74 W10       30.29R WCI  15
MAPLE LAKE     FLURRIES  25  18  72 W17       30.27R WCI  12
$$
MNZ037-044-045-052-053-020200-
   East Central Minnesota

CITY           SKY/WX    TMP DP  RH WIND       PRES   REMARKS
PRINCETON      CLOUDY    25  14  63 W9G17     30.24R WCI  15
MORA           CLEAR     21  12  68 W7        30.24R WCI  13
CAMBRIDGE      PTCLDY    25  12  58 W6        30.22R WCI  18
RUSH CITY      MOCLDY    21  10  63 W7        30.23R WCI  13
MOOSE LAKE     MOCLDY    21  10  63 W10G16    30.17R WCI  10
HINCKLEY       FAIR      23  12  63 W9        30.21R WCI  13
CLOQUET        FLURRIES  19  10  68 W10G16    30.14R WCI   8
MCGREGOR       CLOUDY    21  12  68 W6        30.19R WCI  14
$$
MNZ071>073-080-081-089-090-097-098-020200-
   Southwest Minnesota

CITY           SKY/WX    TMP DP  RH WIND       PRES   REMARKS
MONTEVIDEO     MOCLDY    23  16  74 N9G18     30.35R WCI  13
GRANITE FALLS  PTCLDY    22  15  72 W15       30.36R WCI   9
CANBY          PTCLDY    22  14  71 W12       30.37R WCI  10
MARSHALL       PTCLDY    21  12  68 NW13      30.37R WCI   9
REDWOOD FALLS  CLOUDY    25  15  66 NW14G22   30.33R WCI  13
OLIVIA         MOCLDY    23  16  74 W14G20    30.32R WCI  11
PIPESTONE      CLEAR     21  16  79 NW10      30.34R WCI  10
WINDOM         PTCLDY    23  16  74 W13       30.33R WCI  11
WORTHINGTON    CLEAR     28  12  50 W12       30.36R WCI  18
JACKSON        CLEAR     27  14  59 W15G23    30.33R WCI  15
TRACY          PTCLDY    24  18  77 NW12      30.34R WCI  13
SLAYTON        CLEAR     23  14  69 W15       30.34R WCI  10
$$
MNZ065>067-074>077-082>085-091>093-020200-
   South Central Minnesota

CITY           SKY/WX    TMP DP  RH WIND       PRES   REMARKS
MANKATO        CLOUDY    27  16  63 NW14      30.30R WCI  15
NEW ULM        CLOUDY    25  18  74 NW14      30.32R WCI  13
ST JAMES       CLEAR     27  16  63 W14       30.34R WCI  15
FAIRMONT       PTCLDY    27  14  59 W14       30.31R WCI  15
GLENCOE        PTCLDY    25  19  78 W9        30.29R WCI  15
FARIBAULT      CLOUDY    27  18  69 W16       30.28R WCI  14
OWATONNA       MOCLDY    25  14  63 W16       30.28R WCI  12
WASECA         MOCLDY    25  16  68 W10       30.29R WCI  15
ALBERT LEA     PTCLDY    23  14  68 W7        30.29R WCI  15
$$
MNZ078>079-086>088-094>096-020200-
   Southeast Minnesota

CITY           SKY/WX    TMP DP  RH WIND       PRES   REMARKS
ROCHESTER      MOCLDY    14   7  73 SW10      30.27R WCI   1
RED WING       PTCLDY    21  10  63 W3        30.26R
STANTON        PTCLDY    26  14  61 W7        30.26R WCI  18
DODGE CENTER   MOCLDY    16  10  79 SW7       30.26R WCI   6
WINONA         CLEAR     23  10  58 W5        30.30R WCI  17
AUSTIN         CLOUDY    21  12  68 SW5       30.29R WCI  15
PRESTON        CLEAR     17   9  72 SW6       30.28R WCI   8
$$
ABBREVIATIONS USED IN REMARKS
   TC - TEMPERATURES IN CELSIUS
  WCI - WIND CHILL INDEX
   HX - HEAT INDEX
  VSB - VISIBILITY
$$



USA.gov is the U.S. government's official web portal to all federal, state and local government web resources and services.